QTR51A EDDF-OTHH

Flight info

Callsign QTR51A
Flight time 6h 22m
Altitude 33000
Route CINDY2D CINDY Z74 LAMPU DCT NOMBO Y161 MAH DCT LATLO DCT OBEDI DCT KLAGY DCT MAGAM DCT TIVNU DCT RETRA/N0485F350 DCT PINDO DCT PIKOS DCT GERMI DCT MIL UL617 SIT UL607 PAXIS Y707 OBRAN L321 REXUM M872 WEJ L604 RABDA/N0486F370 L604 GAS G662 KSA M440 SITER DCT LADBO/N0497F290 T142 LAEEB LAEEB1J
Aircraft A35K/H-SDE2E3GHIJ3J4J5LM1ORWXY/LB1D1

Departure

Time 2026-04-16 23:13
Airport Frankfurt Main Airport (EDDF)

Arrival

Time 2026-04-17 05:35
Airport Hamad International Airport (OTHH)
Time Latitude Longitude Altitude Speed Heading
2026-04-16 22:10 50.05092 8.58850 371 ft 0 kts 340°
2026-04-16 22:48 50.05079 8.58857 368 ft 4 kts 340°
2026-04-16 22:48 50.05054 8.58872 367 ft 4 kts 340°
2026-04-16 22:48 50.05031 8.58887 371 ft 4 kts 325°
2026-04-16 22:48 50.05014 8.58915 365 ft 4 kts 285°
2026-04-16 22:49 50.05014 8.58954 365 ft 4 kts 251°
2026-04-16 22:49 50.05024 8.58993 366 ft 4 kts 242°
2026-04-16 22:49 50.05034 8.59022 365 ft 0 kts 250°
2026-04-16 22:54 50.05033 8.59019 365 ft 1 kts 250°
2026-04-16 22:54 50.05029 8.58998 373 ft 3 kts 251°
2026-04-16 22:55 50.05020 8.58957 372 ft 5 kts 250°
2026-04-16 22:55 50.05006 8.58898 370 ft 7 kts 248°
2026-04-16 22:55 50.04987 8.58824 372 ft 8 kts 250°
2026-04-16 22:55 50.04966 8.58736 370 ft 10 kts 250°
2026-04-16 22:56 50.04942 8.58631 369 ft 11 kts 250°
2026-04-16 22:56 50.04914 8.58512 367 ft 12 kts 250°
2026-04-16 22:56 50.04883 8.58381 373 ft 14 kts 250°
2026-04-16 22:56 50.04849 8.58238 369 ft 15 kts 250°
2026-04-16 22:57 50.04811 8.58082 370 ft 15 kts 249°
2026-04-16 22:57 50.04782 8.57988 368 ft 10 kts 231°
2026-04-16 22:57 50.04721 8.57952 370 ft 10 kts 171°
2026-04-16 22:57 50.04676 8.57976 372 ft 11 kts 159°
2026-04-16 22:58 50.04584 8.58030 373 ft 10 kts 159°
2026-04-16 22:58 50.04546 8.58053 376 ft 8 kts 159°
2026-04-16 22:58 50.04540 8.58057 376 ft 0 kts 159°
2026-04-16 22:59 50.04534 8.58060 377 ft 3 kts 159°
2026-04-16 22:59 50.04497 8.58082 377 ft 9 kts 159°
2026-04-16 22:59 50.04429 8.58116 373 ft 9 kts 169°
2026-04-16 23:00 50.04372 8.58080 372 ft 10 kts 227°
2026-04-16 23:00 50.04339 8.57968 373 ft 13 kts 250°
2026-04-16 23:00 50.04304 8.57820 376 ft 16 kts 250°
2026-04-16 23:00 50.04324 8.57695 374 ft 11 kts 323°
2026-04-16 23:01 50.04389 8.57657 375 ft 9 kts 342°
2026-04-16 23:01 50.04426 8.57588 374 ft 10 kts 278°
2026-04-16 23:01 50.04409 8.57461 372 ft 13 kts 252°
2026-04-16 23:01 50.04377 8.57320 374 ft 14 kts 249°
2026-04-16 23:02 50.04341 8.57169 372 ft 15 kts 249°
2026-04-16 23:02 50.04301 8.57003 370 ft 18 kts 249°
2026-04-16 23:02 50.04257 8.56820 371 ft 18 kts 249°
2026-04-16 23:02 50.04208 8.56618 364 ft 21 kts 249°
2026-04-16 23:03 50.04154 8.56393 366 ft 23 kts 249°
2026-04-16 23:03 50.04096 8.56152 363 ft 24 kts 250°
2026-04-16 23:03 50.04038 8.55901 363 ft 25 kts 250°
2026-04-16 23:03 50.03977 8.55642 364 ft 26 kts 249°
2026-04-16 23:04 50.03913 8.55379 360 ft 26 kts 249°
2026-04-16 23:04 50.03849 8.55114 361 ft 26 kts 249°
2026-04-16 23:04 50.03783 8.54841 360 ft 27 kts 249°
2026-04-16 23:04 50.03718 8.54569 360 ft 21 kts 250°
2026-04-16 23:05 50.03694 8.54468 354 ft 10 kts 250°
2026-04-16 23:05 50.03666 8.54352 358 ft 12 kts 246°
2026-04-16 23:05 50.03596 8.54317 357 ft 12 kts 160°
2026-04-16 23:05 50.03515 8.54363 359 ft 12 kts 160°
2026-04-16 23:06 50.03432 8.54412 358 ft 14 kts 159°
2026-04-16 23:06 50.03329 8.54468 351 ft 15 kts 171°
2026-04-16 23:06 50.03240 8.54396 354 ft 16 kts 232°
2026-04-16 23:06 50.03198 8.54239 347 ft 16 kts 251°
2026-04-16 23:07 50.03159 8.54073 354 ft 17 kts 250°
2026-04-16 23:07 50.03113 8.53886 335 ft 19 kts 249°
2026-04-16 23:07 50.03073 8.53720 335 ft 15 kts 249°
2026-04-16 23:07 50.03065 8.53626 335 ft 4 kts 303°
2026-04-16 23:08 50.03094 8.53596 336 ft 5 kts 337°
2026-04-16 23:08 50.03133 8.53576 337 ft 5 kts 340°
2026-04-16 23:08 50.03138 8.53573 351 ft 0 kts 340°
2026-04-16 23:09 50.03140 8.53572 350 ft 1 kts 340°
2026-04-16 23:10 50.03159 8.53562 353 ft 4 kts 340°
2026-04-16 23:10 50.03187 8.53547 351 ft 4 kts 340°
2026-04-16 23:10 50.03214 8.53531 354 ft 4 kts 340°
2026-04-16 23:10 50.03242 8.53518 352 ft 6 kts 347°
2026-04-16 23:11 50.03282 8.53546 355 ft 7 kts 48°
2026-04-16 23:11 50.03298 8.53612 352 ft 0 kts 71°
2026-04-16 23:11 50.03298 8.53613 352 ft 0 kts 71°
2026-04-16 23:12 50.03346 8.53818 350 ft 53 kts 69°
2026-04-16 23:12 50.03555 8.54688 356 ft 117 kts 70°
2026-04-16 23:12 50.03903 8.56149 364 ft 170 kts 70°
2026-04-16 23:12 50.04324 8.57925 882 ft 175 kts 69°
2026-04-16 23:13 50.04733 8.59697 1591 ft 178 kts 72°
2026-04-16 23:13 50.05143 8.61640 1867 ft 200 kts 72°
2026-04-16 23:13 50.05593 8.63805 2099 ft 218 kts 72°
2026-04-16 23:13 50.06069 8.66090 2589 ft 225 kts 72°
2026-04-16 23:14 50.06367 8.68489 3121 ft 228 kts 90°
2026-04-16 23:14 50.05949 8.70852 3613 ft 231 kts 122°
2026-04-16 23:14 50.04794 8.72533 4023 ft 230 kts 151°
2026-04-16 23:14 50.03348 8.73631 4566 ft 233 kts 157°
2026-04-16 23:15 50.00235 8.74894 5626 ft 239 kts 186°
2026-04-16 23:15 49.98534 8.74417 5851 ft 258 kts 195°
2026-04-16 23:15 49.96756 8.73724 6340 ft 266 kts 195°
2026-04-16 23:16 49.94955 8.73026 6975 ft 268 kts 195°
2026-04-16 23:16 49.93131 8.72338 7606 ft 271 kts 194°
2026-04-16 23:16 49.91276 8.71723 8228 ft 275 kts 188°
2026-04-16 23:16 49.89351 8.71767 8859 ft 280 kts 170°
2026-04-16 23:17 49.87547 8.72925 9492 ft 286 kts 145°
2026-04-16 23:17 49.86269 8.75242 10120 ft 289 kts 120°
2026-04-16 23:17 49.85108 8.77807 10658 ft 293 kts 131°
2026-04-16 23:17 49.83851 8.80371 10990 ft 307 kts 122°
2026-04-16 23:18 49.82880 8.83425 11212 ft 324 kts 112°
2026-04-16 23:18 49.82050 8.86766 11439 ft 340 kts 110°
2026-04-16 23:18 49.81226 8.90285 11669 ft 356 kts 110°
2026-04-16 23:18 49.80377 8.93971 11889 ft 370 kts 110°
2026-04-16 23:19 49.79501 8.97786 12091 ft 383 kts 110°
2026-04-16 23:19 49.78600 9.01712 12436 ft 391 kts 109°
2026-04-16 23:19 49.77687 9.05690 12878 ft 395 kts 109°
2026-04-16 23:19 49.76758 9.09731 13280 ft 401 kts 109°
2026-04-16 23:20 49.75816 9.13823 13723 ft 406 kts 109°
2026-04-16 23:20 49.74766 9.17885 14153 ft 409 kts 117°
2026-04-16 23:20 49.73230 9.21602 14571 ft 411 kts 127°
2026-04-16 23:20 49.71437 9.25074 14988 ft 414 kts 131°
2026-04-16 23:21 49.69523 9.28420 15418 ft 417 kts 133°
2026-04-16 23:21 49.67558 9.31729 15847 ft 420 kts 133°
2026-04-16 23:21 49.65571 9.35066 16269 ft 423 kts 133°
2026-04-16 23:21 49.63580 9.38424 16683 ft 426 kts 134°
2026-04-16 23:22 49.61369 9.41469 17085 ft 427 kts 144°
2026-04-16 23:22 49.58927 9.44101 17510 ft 429 kts 148°
2026-04-16 23:22 49.56429 9.46542 17905 ft 432 kts 150°
2026-04-16 23:22 49.53840 9.48931 18253 ft 436 kts 151°
2026-04-16 23:23 49.51213 9.51291 18632 ft 438 kts 151°
2026-04-16 23:23 49.48566 9.53654 18977 ft 441 kts 151°
2026-04-16 23:23 49.45908 9.56033 19330 ft 444 kts 151°
2026-04-16 23:23 49.43235 9.58438 19693 ft 446 kts 151°
2026-04-16 23:24 49.40550 9.60863 20040 ft 449 kts 151°
2026-04-16 23:24 49.37854 9.63306 20387 ft 451 kts 151°
2026-04-16 23:24 49.35184 9.65872 20732 ft 455 kts 146°
2026-04-16 23:24 49.32712 9.68944 21078 ft 458 kts 139°
2026-04-16 23:25 49.30362 9.72257 21418 ft 461 kts 137°
2026-04-16 23:25 49.28054 9.75703 21783 ft 464 kts 136°
2026-04-16 23:25 49.25767 9.79215 22120 ft 467 kts 135°
2026-04-16 23:25 49.23477 9.82760 22476 ft 470 kts 135°
2026-04-16 23:26 49.21172 9.86322 22827 ft 472 kts 135°
2026-04-16 23:26 49.18848 9.89891 23184 ft 475 kts 135°
2026-04-16 23:26 49.16507 9.93464 23512 ft 477 kts 135°
2026-04-16 23:26 49.14178 9.97002 23857 ft 480 kts 136°
2026-04-16 23:27 49.11799 10.00602 24142 ft 483 kts 136°
2026-04-16 23:27 49.09403 10.04220 24427 ft 485 kts 136°
2026-04-16 23:27 49.06992 10.07854 24714 ft 488 kts 136°
2026-04-16 23:27 49.04560 10.11493 25005 ft 490 kts 136°
2026-04-16 23:28 49.02073 10.15071 25291 ft 493 kts 138°
2026-04-16 23:28 48.99546 10.18615 25599 ft 496 kts 138°
2026-04-16 23:28 48.96993 10.22164 25901 ft 498 kts 138°
2026-04-16 23:28 48.94429 10.25731 26209 ft 501 kts 138°
2026-04-16 23:29 48.91853 10.29333 26520 ft 504 kts 138°
2026-04-16 23:29 48.89268 10.32960 26815 ft 507 kts 137°
2026-04-16 23:29 48.86677 10.36602 27120 ft 509 kts 137°
2026-04-16 23:29 48.84070 10.40265 27441 ft 512 kts 137°
2026-04-16 23:30 48.81458 10.43968 27738 ft 514 kts 136°
2026-04-16 23:30 48.78932 10.47842 28038 ft 517 kts 134°
2026-04-16 23:30 48.76496 10.51792 28327 ft 520 kts 133°
2026-04-16 23:30 48.74046 10.55837 28638 ft 522 kts 132°
2026-04-16 23:31 48.71584 10.59896 28914 ft 524 kts 133°
2026-04-16 23:31 48.69098 10.63954 29180 ft 527 kts 133°
2026-04-16 23:31 48.66581 10.68008 29425 ft 529 kts 133°
2026-04-16 23:31 48.64044 10.72063 29688 ft 532 kts 133°
2026-04-16 23:32 48.61489 10.76120 29912 ft 534 kts 134°
2026-04-16 23:32 48.58915 10.80190 30179 ft 536 kts 134°
2026-04-16 23:32 48.56338 10.84276 30398 ft 537 kts 133°
2026-04-16 23:32 48.53771 10.88370 30740 ft 536 kts 133°
2026-04-16 23:33 48.51213 10.92456 31103 ft 535 kts 133°
2026-04-16 23:33 48.48659 10.96536 31398 ft 535 kts 133°
2026-04-16 23:33 48.46094 11.00595 31684 ft 535 kts 133°
2026-04-16 23:33 48.43514 11.04625 31967 ft 534 kts 134°
2026-04-16 23:34 48.40924 11.08645 32249 ft 534 kts 134°
2026-04-16 23:34 48.38336 11.12650 32551 ft 534 kts 134°
2026-04-16 23:34 48.35750 11.16650 32804 ft 533 kts 134°
2026-04-16 23:34 48.33167 11.20644 33062 ft 533 kts 134°
2026-04-16 23:35 48.30583 11.24639 33337 ft 533 kts 133°
2026-04-16 23:35 48.28055 11.28625 33537 ft 534 kts 130°
2026-04-16 23:35 48.25800 11.33036 33793 ft 532 kts 121°
2026-04-16 23:35 48.23850 11.37742 34053 ft 530 kts 118°
2026-04-16 23:36 48.21986 11.42511 34297 ft 530 kts 117°
2026-04-16 23:36 48.20167 11.47309 34538 ft 529 kts 117°
2026-04-16 23:36 48.18367 11.52108 34781 ft 528 kts 117°
2026-04-16 23:36 48.16567 11.56906 34998 ft 527 kts 117°
2026-04-16 23:37 48.14765 11.61688 35208 ft 528 kts 117°
2026-04-16 23:37 48.11110 11.71308 35272 ft 535 kts 117°
2026-04-16 23:38 48.07407 11.80970 35275 ft 535 kts 118°
2026-04-16 23:38 48.03695 11.90609 35261 ft 534 kts 118°
2026-04-16 23:39 47.99984 12.00214 35282 ft 533 kts 117°
2026-04-16 23:39 47.96274 12.09787 35264 ft 533 kts 118°
2026-04-16 23:40 47.92552 12.19356 35281 ft 533 kts 118°
2026-04-16 23:40 47.88828 12.28896 35290 ft 533 kts 118°
2026-04-16 23:41 47.85116 12.38373 35272 ft 533 kts 118°
2026-04-16 23:41 47.81376 12.47889 35291 ft 533 kts 118°
2026-04-16 23:42 47.77626 12.57393 35290 ft 532 kts 118°
2026-04-16 23:42 47.73867 12.66890 35280 ft 533 kts 118°
2026-04-16 23:43 47.70098 12.76360 35264 ft 532 kts 118°
2026-04-16 23:43 47.65478 12.84974 35260 ft 535 kts 132°
2026-04-16 23:44 47.60254 12.92869 35281 ft 536 kts 134°
2026-04-16 23:44 47.54944 13.00619 35288 ft 536 kts 134°
2026-04-16 23:45 47.49632 13.08366 35283 ft 536 kts 134°
2026-04-16 23:45 47.44327 13.16125 35295 ft 536 kts 134°
2026-04-16 23:46 47.39069 13.23812 35289 ft 536 kts 134°
2026-04-16 23:46 47.33784 13.31557 35269 ft 535 kts 132°
2026-04-16 23:47 47.29733 13.38519 35280 ft 533 kts 128°
2026-04-16 23:47 47.25047 13.46979 35281 ft 532 kts 127°
2026-04-16 23:48 47.20428 13.55391 35575 ft 529 kts 127°
2026-04-16 23:48 47.18123 13.59575 35995 ft 523 kts 127°
2026-04-16 23:48 47.15834 13.63715 36291 ft 521 kts 127°
2026-04-16 23:48 47.13549 13.67842 36457 ft 521 kts 127°
2026-04-16 23:49 47.11259 13.71968 36633 ft 520 kts 128°
2026-04-16 23:49 47.08974 13.76076 36831 ft 519 kts 128°
2026-04-16 23:49 47.06693 13.80169 37016 ft 518 kts 128°
2026-04-16 23:49 47.04412 13.84256 37163 ft 518 kts 128°
2026-04-16 23:50 47.02129 13.88341 37271 ft 519 kts 128°
2026-04-16 23:50 46.97528 13.96556 37275 ft 523 kts 128°
2026-04-16 23:51 46.92891 14.04814 37262 ft 524 kts 128°
2026-04-16 23:51 46.88276 14.12997 37270 ft 520 kts 128°
2026-04-16 23:52 46.83675 14.21135 37268 ft 519 kts 128°
2026-04-16 23:52 46.79101 14.29204 37264 ft 519 kts 128°
2026-04-16 23:53 46.74495 14.37305 37280 ft 519 kts 128°
2026-04-16 23:53 46.69876 14.45403 37252 ft 519 kts 129°
2026-04-16 23:54 46.65254 14.53484 37260 ft 519 kts 128°
2026-04-16 23:54 46.60628 14.61548 37256 ft 519 kts 129°
2026-04-16 23:55 46.55998 14.69597 37270 ft 519 kts 129°
2026-04-16 23:55 46.51365 14.77627 37241 ft 519 kts 129°
2026-04-16 23:56 46.46737 14.85667 37238 ft 518 kts 129°
2026-04-16 23:56 46.42111 14.93696 37236 ft 519 kts 129°
2026-04-16 23:57 46.37512 15.01655 37236 ft 518 kts 129°
2026-04-16 23:57 46.32886 15.09631 37236 ft 515 kts 129°
2026-04-16 23:58 46.28279 15.17551 37233 ft 514 kts 129°
2026-04-16 23:58 46.23666 15.25461 37234 ft 515 kts 129°
2026-04-16 23:59 46.19046 15.33359 37238 ft 515 kts 130°
2026-04-16 23:59 46.14428 15.41232 37233 ft 512 kts 130°
2026-04-17 00:00 46.09825 15.49055 37218 ft 511 kts 130°
2026-04-17 00:00 46.05221 15.56856 37215 ft 511 kts 130°
2026-04-17 00:01 46.00613 15.64648 37213 ft 511 kts 130°
2026-04-17 00:01 45.95871 15.72156 37213 ft 511 kts 135°
2026-04-17 00:02 45.90785 15.79283 37212 ft 511 kts 136°
2026-04-17 00:02 45.85644 15.86330 37206 ft 511 kts 136°
2026-04-17 00:03 45.80503 15.93349 37216 ft 510 kts 136°
2026-04-17 00:03 45.75370 16.00358 37211 ft 509 kts 136°
2026-04-17 00:04 45.70242 16.07351 37208 ft 509 kts 136°
2026-04-17 00:04 45.65113 16.14327 37206 ft 509 kts 136°
2026-04-17 00:05 45.59972 16.21301 37206 ft 509 kts 137°
2026-04-17 00:05 45.54838 16.28248 37197 ft 508 kts 137°
2026-04-17 00:06 45.49739 16.35127 37199 ft 508 kts 137°
2026-04-17 00:06 45.44600 16.42042 37199 ft 508 kts 137°
2026-04-17 00:07 45.39457 16.48945 37196 ft 508 kts 137°
2026-04-17 00:07 45.34313 16.55833 37195 ft 507 kts 138°
2026-04-17 00:08 45.29175 16.62692 37192 ft 506 kts 138°
2026-04-17 00:08 45.24041 16.69529 37194 ft 506 kts 138°
2026-04-17 00:09 45.18900 16.76356 37191 ft 506 kts 138°
2026-04-17 00:09 45.13756 16.83171 37189 ft 505 kts 139°
2026-04-17 00:10 45.08650 16.89919 37186 ft 505 kts 139°
2026-04-17 00:10 45.03508 16.96695 37186 ft 504 kts 139°
2026-04-17 00:11 44.98363 17.03447 37186 ft 504 kts 139°
2026-04-17 00:11 44.92724 17.09239 37187 ft 500 kts 149°
2026-04-17 00:12 44.86834 17.14468 37178 ft 499 kts 150°
2026-04-17 00:12 44.80913 17.19593 37183 ft 499 kts 150°
2026-04-17 00:13 44.74997 17.24715 37182 ft 499 kts 150°
2026-04-17 00:13 44.69087 17.29843 37182 ft 499 kts 149°
2026-04-17 00:14 44.63188 17.34959 37173 ft 498 kts 149°
2026-04-17 00:14 44.57293 17.40059 37184 ft 497 kts 149°
2026-04-17 00:15 44.51441 17.45110 37182 ft 498 kts 149°
2026-04-17 00:15 44.45541 17.50189 37180 ft 498 kts 149°
2026-04-17 00:16 44.39648 17.55248 37180 ft 497 kts 149°
2026-04-17 00:16 44.33754 17.60298 37179 ft 497 kts 149°
2026-04-17 00:17 44.27858 17.65339 37174 ft 497 kts 149°
2026-04-17 00:17 44.21966 17.70362 37170 ft 496 kts 149°
2026-04-17 00:18 44.16063 17.75381 37173 ft 496 kts 148°
2026-04-17 00:18 44.10164 17.80386 37161 ft 495 kts 148°
2026-04-17 00:19 44.04318 17.85337 37162 ft 495 kts 148°
2026-04-17 00:19 43.98423 17.90318 37158 ft 496 kts 148°
2026-04-17 00:20 43.92517 17.95292 37161 ft 495 kts 148°
2026-04-17 00:20 43.86633 18.00238 37151 ft 494 kts 148°
2026-04-17 00:21 43.80752 18.05170 37158 ft 494 kts 148°
2026-04-17 00:21 43.74875 18.10088 37152 ft 493 kts 148°
2026-04-17 00:22 43.66062 18.17442 37152 ft 494 kts 148°
2026-04-17 00:22 43.60171 18.22343 37148 ft 495 kts 148°
2026-04-17 00:23 43.54279 18.27233 37136 ft 494 kts 148°
2026-04-17 00:23 43.48387 18.32112 37131 ft 494 kts 148°
2026-04-17 00:24 43.42514 18.36964 37133 ft 495 kts 148°
2026-04-17 00:24 43.36587 18.41851 37129 ft 498 kts 148°
2026-04-17 00:25 43.30624 18.46759 37131 ft 498 kts 149°
2026-04-17 00:25 43.24676 18.51638 37123 ft 498 kts 149°
2026-04-17 00:26 43.18743 18.56493 37125 ft 495 kts 149°
2026-04-17 00:26 43.12817 18.61331 37118 ft 495 kts 149°
2026-04-17 00:27 43.06909 18.66146 37111 ft 495 kts 149°
2026-04-17 00:27 43.00976 18.70971 37114 ft 498 kts 149°
2026-04-17 00:28 42.95017 18.75805 37108 ft 498 kts 149°
2026-04-17 00:28 42.89095 18.80596 37110 ft 493 kts 149°
2026-04-17 00:29 42.83210 18.85348 37106 ft 491 kts 149°
2026-04-17 00:29 42.77327 18.90088 37091 ft 491 kts 149°
2026-04-17 00:30 42.71483 18.94786 37094 ft 491 kts 149°
2026-04-17 00:30 42.65603 18.99502 37079 ft 490 kts 149°
2026-04-17 00:31 42.59712 19.04216 37061 ft 492 kts 149°
2026-04-17 00:31 42.53824 19.08919 37058 ft 490 kts 149°
2026-04-17 00:32 42.47949 19.13600 37048 ft 489 kts 149°
2026-04-17 00:32 42.42076 19.18270 37046 ft 490 kts 150°
2026-04-17 00:33 42.36187 19.22940 37047 ft 490 kts 149°
2026-04-17 00:33 42.30312 19.27590 37047 ft 489 kts 149°
2026-04-17 00:34 42.24465 19.32212 37046 ft 490 kts 149°
2026-04-17 00:34 42.18802 19.37341 37039 ft 490 kts 145°
2026-04-17 00:35 42.14145 19.41773 37018 ft 489 kts 144°
2026-04-17 00:35 42.08634 19.47058 37021 ft 489 kts 144°
2026-04-17 00:36 42.03095 19.52352 37005 ft 487 kts 144°
2026-04-17 00:36 41.97560 19.57619 37013 ft 488 kts 144°
2026-04-17 00:37 41.92012 19.62881 37011 ft 488 kts 144°
2026-04-17 00:37 41.86468 19.68128 37011 ft 488 kts 144°
2026-04-17 00:38 41.80948 19.73342 37008 ft 488 kts 144°
2026-04-17 00:38 41.75397 19.78574 36988 ft 488 kts 144°
2026-04-17 00:39 41.69845 19.83795 37007 ft 487 kts 144°
2026-04-17 00:39 41.64308 19.88992 37023 ft 486 kts 144°
2026-04-17 00:40 41.58773 19.94176 37036 ft 485 kts 144°
2026-04-17 00:40 41.53238 19.99348 37014 ft 486 kts 144°
2026-04-17 00:41 41.47694 20.04518 37020 ft 486 kts 144°
2026-04-17 00:41 41.42151 20.09676 37012 ft 486 kts 145°
2026-04-17 00:42 41.36630 20.14803 37039 ft 487 kts 145°
2026-04-17 00:42 41.31078 20.19947 37027 ft 486 kts 145°
2026-04-17 00:43 41.25534 20.25072 37036 ft 486 kts 145°
2026-04-17 00:43 41.19983 20.30194 37050 ft 485 kts 145°
2026-04-17 00:44 41.14439 20.35298 37048 ft 485 kts 145°
2026-04-17 00:44 41.08897 20.40390 37045 ft 484 kts 145°
2026-04-17 00:45 41.03352 20.45475 37067 ft 484 kts 145°
2026-04-17 00:45 40.97813 20.50542 37062 ft 482 kts 145°
2026-04-17 00:46 40.92310 20.55567 37063 ft 480 kts 145°
2026-04-17 00:46 40.86808 20.60581 37071 ft 481 kts 145°
2026-04-17 00:47 40.81293 20.65596 37070 ft 480 kts 145°
2026-04-17 00:47 40.75778 20.70600 37068 ft 481 kts 145°
2026-04-17 00:48 40.70249 20.75607 37079 ft 482 kts 145°
2026-04-17 00:48 40.64762 20.80565 37075 ft 481 kts 145°
2026-04-17 00:49 40.59255 20.85533 37075 ft 479 kts 145°
2026-04-17 00:49 40.53761 20.90478 37078 ft 478 kts 145°
2026-04-17 00:50 40.48313 20.95493 37075 ft 478 kts 141°
2026-04-17 00:50 40.43236 21.01134 37087 ft 477 kts 139°
2026-04-17 00:51 40.38251 21.06880 37080 ft 477 kts 138°
2026-04-17 00:51 40.33278 21.12634 37080 ft 477 kts 139°
2026-04-17 00:52 40.28298 21.18370 37087 ft 476 kts 139°
2026-04-17 00:52 40.23315 21.24083 37087 ft 476 kts 139°
2026-04-17 00:53 40.18324 21.29790 37090 ft 476 kts 139°
2026-04-17 00:53 40.13342 21.35476 37087 ft 475 kts 139°
2026-04-17 00:54 40.08394 21.41112 37086 ft 475 kts 139°
2026-04-17 00:54 40.03404 21.46785 37085 ft 475 kts 139°
2026-04-17 00:55 39.98418 21.52442 37086 ft 475 kts 139°
2026-04-17 00:55 39.93181 21.57689 37083 ft 475 kts 144°
2026-04-17 00:56 39.87769 21.62622 37080 ft 475 kts 145°
2026-04-17 00:56 39.82329 21.67502 37077 ft 475 kts 145°
2026-04-17 00:57 39.76879 21.72386 37076 ft 475 kts 145°
2026-04-17 00:57 39.71441 21.77261 37074 ft 475 kts 145°
2026-04-17 00:58 39.65997 21.82139 37063 ft 474 kts 145°
2026-04-17 00:58 39.60580 21.86983 37061 ft 473 kts 145°
2026-04-17 00:59 39.55163 21.91818 37058 ft 472 kts 145°
2026-04-17 00:59 39.49783 21.96609 37056 ft 472 kts 145°
2026-04-17 01:00 39.44366 22.01425 37053 ft 472 kts 145°
2026-04-17 01:00 39.38945 22.06234 37054 ft 472 kts 145°
2026-04-17 01:01 39.33530 22.11029 37051 ft 472 kts 145°
2026-04-17 01:01 39.28097 22.15832 37050 ft 472 kts 145°
2026-04-17 01:02 39.22674 22.20616 37051 ft 472 kts 145°
2026-04-17 01:02 39.17249 22.25392 37050 ft 472 kts 145°
2026-04-17 01:03 39.11825 22.30158 37050 ft 472 kts 145°
2026-04-17 01:03 39.06401 22.34915 37047 ft 471 kts 145°
2026-04-17 01:04 39.00982 22.39659 37049 ft 471 kts 145°
2026-04-17 01:04 38.95559 22.44398 37049 ft 471 kts 145°
2026-04-17 01:05 38.90138 22.49125 37042 ft 470 kts 145°
2026-04-17 01:05 38.84730 22.53832 37036 ft 469 kts 145°
2026-04-17 01:06 38.79333 22.58522 37036 ft 468 kts 145°
2026-04-17 01:06 38.73939 22.63201 37030 ft 468 kts 145°
2026-04-17 01:07 38.68540 22.67875 37025 ft 468 kts 145°
2026-04-17 01:07 38.63171 22.72514 37024 ft 468 kts 145°
2026-04-17 01:08 38.57777 22.77166 37016 ft 466 kts 145°
2026-04-17 01:08 38.52398 22.81798 37017 ft 465 kts 145°
2026-04-17 01:09 38.47064 22.86381 37016 ft 459 kts 145°
2026-04-17 01:09 38.41765 22.90927 37009 ft 460 kts 145°
2026-04-17 01:10 38.36458 22.95473 37006 ft 462 kts 145°
2026-04-17 01:10 38.31116 23.00037 36996 ft 460 kts 145°
2026-04-17 01:11 38.25775 23.04594 36999 ft 463 kts 145°
2026-04-17 01:11 38.20395 23.09176 36992 ft 467 kts 145°
2026-04-17 01:12 38.15017 23.13772 36989 ft 465 kts 144°
2026-04-17 01:12 38.09920 23.18802 36984 ft 467 kts 140°
2026-04-17 01:13 38.04925 23.24024 36974 ft 463 kts 140°
2026-04-17 01:13 37.99902 23.29177 36969 ft 465 kts 141°
2026-04-17 01:14 37.94836 23.34274 36967 ft 466 kts 141°
2026-04-17 01:14 37.89744 23.39358 36965 ft 466 kts 141°
2026-04-17 01:15 37.84657 23.44428 36955 ft 466 kts 141°
2026-04-17 01:15 37.79563 23.49501 36947 ft 471 kts 141°
2026-04-17 01:16 37.74391 23.54645 36942 ft 473 kts 141°
2026-04-17 01:16 37.69214 23.59784 36941 ft 473 kts 141°
2026-04-17 01:17 37.64029 23.64921 36930 ft 473 kts 141°
2026-04-17 01:17 37.58851 23.70041 36930 ft 473 kts 141°
2026-04-17 01:18 37.53670 23.75156 36915 ft 473 kts 141°
2026-04-17 01:18 37.48501 23.80250 36914 ft 470 kts 141°
2026-04-17 01:19 37.43366 23.85300 36908 ft 471 kts 141°
2026-04-17 01:19 37.38185 23.90388 36905 ft 474 kts 141°
2026-04-17 01:20 37.32972 23.95495 36894 ft 473 kts 141°
2026-04-17 01:20 37.27794 24.00563 36897 ft 472 kts 141°
2026-04-17 01:21 37.22648 24.05587 36891 ft 465 kts 141°
2026-04-17 01:21 37.17520 24.10589 36890 ft 468 kts 141°
2026-04-17 01:22 37.12398 24.15572 36884 ft 467 kts 141°
2026-04-17 01:22 37.07312 24.20512 36885 ft 464 kts 141°
2026-04-17 01:23 37.02240 24.25429 36883 ft 460 kts 141°
2026-04-17 01:23 36.97987 24.29546 36877 ft 460 kts 141°
2026-04-17 01:24 36.92957 24.34408 36878 ft 461 kts 141°
2026-04-17 01:24 36.87857 24.39333 36874 ft 464 kts 142°
2026-04-17 01:25 36.82743 24.44261 36878 ft 465 kts 142°
2026-04-17 01:25 36.77604 24.49201 36878 ft 466 kts 142°
2026-04-17 01:26 36.72480 24.54151 36876 ft 466 kts 141°
2026-04-17 01:26 36.67466 24.59270 36875 ft 466 kts 140°
2026-04-17 01:27 36.62476 24.64430 36864 ft 466 kts 140°
2026-04-17 01:27 36.57470 24.69558 36865 ft 466 kts 140°
2026-04-17 01:28 36.52444 24.74668 36862 ft 466 kts 140°
2026-04-17 01:28 36.47420 24.79760 36854 ft 466 kts 140°
2026-04-17 01:29 36.39876 24.87390 36850 ft 465 kts 140°
2026-04-17 01:30 36.34862 24.92451 36851 ft 464 kts 140°
2026-04-17 01:30 36.29877 24.97476 36845 ft 465 kts 140°
2026-04-17 01:31 36.24862 25.02522 36830 ft 464 kts 140°
2026-04-17 01:31 36.19863 25.07544 36833 ft 460 kts 140°
2026-04-17 01:32 36.14891 25.12530 36834 ft 462 kts 140°
2026-04-17 01:32 36.09898 25.17529 36822 ft 462 kts 140°
2026-04-17 01:33 36.04881 25.22542 36816 ft 464 kts 140°
2026-04-17 01:33 35.99879 25.27532 36814 ft 462 kts 140°
2026-04-17 01:34 35.94890 25.32500 36815 ft 460 kts 140°
2026-04-17 01:34 35.89911 25.37457 36816 ft 461 kts 140°
2026-04-17 01:35 35.84914 25.42419 36808 ft 461 kts 141°
2026-04-17 01:35 35.79883 25.47399 36808 ft 466 kts 141°
2026-04-17 01:36 35.74783 25.52441 36803 ft 473 kts 141°
2026-04-17 01:36 35.69640 25.57518 36804 ft 473 kts 141°
2026-04-17 01:37 35.64507 25.62588 36808 ft 473 kts 141°
2026-04-17 01:37 35.59412 25.67604 36800 ft 472 kts 141°
2026-04-17 01:38 35.54294 25.72636 36805 ft 471 kts 141°
2026-04-17 01:38 35.49182 25.77654 36802 ft 470 kts 141°
2026-04-17 01:39 35.44072 25.82662 36804 ft 470 kts 141°
2026-04-17 01:39 35.38960 25.87664 36802 ft 470 kts 141°
2026-04-17 01:40 35.33845 25.92660 36794 ft 470 kts 141°
2026-04-17 01:40 35.28724 25.97655 36791 ft 470 kts 142°
2026-04-17 01:41 35.23607 26.02641 36783 ft 471 kts 142°
2026-04-17 01:41 35.18451 26.07650 36779 ft 474 kts 142°
2026-04-17 01:42 35.13313 26.12631 36764 ft 474 kts 142°
2026-04-17 01:42 35.08142 26.17640 36760 ft 474 kts 142°
2026-04-17 01:43 35.03018 26.22726 36760 ft 475 kts 140°
2026-04-17 01:43 34.98023 26.27989 36745 ft 474 kts 140°
2026-04-17 01:44 34.93060 26.33229 36744 ft 470 kts 141°
2026-04-17 01:44 34.88085 26.38418 36732 ft 471 kts 142°
2026-04-17 01:45 34.83089 26.43592 36728 ft 472 kts 141°
2026-04-17 01:45 34.78081 26.48772 36717 ft 471 kts 141°
2026-04-17 01:46 34.73079 26.53939 36720 ft 470 kts 142°
2026-04-17 01:46 34.68108 26.59063 36724 ft 470 kts 142°
2026-04-17 01:47 34.63084 26.64231 36717 ft 475 kts 142°
2026-04-17 01:47 34.58058 26.69395 36716 ft 476 kts 142°
2026-04-17 01:48 34.52998 26.74589 36716 ft 476 kts 142°
2026-04-17 01:48 34.47937 26.79774 36710 ft 476 kts 142°
2026-04-17 01:49 34.42878 26.84946 36710 ft 476 kts 142°
2026-04-17 01:49 34.37815 26.90116 36704 ft 476 kts 142°
2026-04-17 01:50 34.32745 26.95283 36705 ft 477 kts 143°
2026-04-17 01:50 34.27640 27.00475 36696 ft 480 kts 143°
2026-04-17 01:51 34.22525 27.05671 36697 ft 480 kts 143°
2026-04-17 01:51 34.17409 27.10861 36697 ft 480 kts 143°
2026-04-17 01:52 34.12291 27.16043 36688 ft 480 kts 143°
2026-04-17 01:52 34.07206 27.21187 36689 ft 480 kts 143°
2026-04-17 01:53 34.02083 27.26360 36683 ft 481 kts 143°
2026-04-17 01:53 33.96905 27.31504 36680 ft 481 kts 147°
2026-04-17 01:54 33.91143 27.35471 36680 ft 476 kts 158°
2026-04-17 01:54 33.85111 27.38753 36680 ft 476 kts 159°
2026-04-17 01:55 33.79035 27.41926 36686 ft 476 kts 159°
2026-04-17 01:55 33.72954 27.45110 36687 ft 478 kts 160°
2026-04-17 01:56 33.66863 27.48317 36689 ft 481 kts 160°
2026-04-17 01:56 33.60749 27.51545 36688 ft 480 kts 160°
2026-04-17 01:57 33.54639 27.54767 36680 ft 479 kts 160°
2026-04-17 01:57 33.48534 27.57979 36677 ft 480 kts 161°
2026-04-17 01:58 33.42401 27.61198 36680 ft 482 kts 161°
2026-04-17 01:58 33.36248 27.64423 36675 ft 483 kts 161°
2026-04-17 01:59 33.30089 27.67647 36673 ft 483 kts 161°
2026-04-17 01:59 33.23934 27.70864 36669 ft 483 kts 161°
2026-04-17 02:00 33.17777 27.74079 36661 ft 483 kts 161°
2026-04-17 02:00 33.11607 27.77293 36663 ft 484 kts 161°
2026-04-17 02:01 33.05442 27.80499 36657 ft 484 kts 161°
2026-04-17 02:01 32.99273 27.83703 36659 ft 484 kts 161°
2026-04-17 02:02 32.93106 27.86904 36645 ft 484 kts 162°
2026-04-17 02:02 32.86933 27.90101 36654 ft 484 kts 162°
2026-04-17 02:03 32.80758 27.93292 36652 ft 484 kts 162°
2026-04-17 02:03 32.74583 27.96480 36652 ft 484 kts 162°
2026-04-17 02:04 32.68404 27.99664 36651 ft 484 kts 162°
2026-04-17 02:04 32.62230 28.02842 36649 ft 484 kts 162°
2026-04-17 02:05 32.56090 28.05998 36645 ft 484 kts 162°
2026-04-17 02:05 32.49918 28.09167 36644 ft 482 kts 163°
2026-04-17 02:06 32.43766 28.12320 36644 ft 481 kts 163°
2026-04-17 02:06 32.37617 28.15465 36651 ft 482 kts 164°
2026-04-17 02:07 32.31446 28.18615 36647 ft 483 kts 164°
2026-04-17 02:07 32.25270 28.21765 36644 ft 483 kts 164°
2026-04-17 02:08 32.19092 28.24913 36648 ft 483 kts 164°
2026-04-17 02:08 32.12917 28.28054 36629 ft 483 kts 164°
2026-04-17 02:09 32.07775 28.30664 36647 ft 486 kts 164°
2026-04-17 02:09 32.00502 28.34352 36650 ft 487 kts 164°
2026-04-17 02:10 31.95332 28.36971 36623 ft 487 kts 164°
2026-04-17 02:10 31.88103 28.40628 36644 ft 486 kts 165°
2026-04-17 02:11 31.81884 28.43769 36651 ft 486 kts 165°
2026-04-17 02:11 31.76669 28.46386 36648 ft 487 kts 165°
2026-04-17 02:12 31.70440 28.49507 36655 ft 487 kts 165°
2026-04-17 02:12 31.64253 28.52605 36653 ft 487 kts 165°
2026-04-17 02:13 31.58020 28.55722 36625 ft 486 kts 166°
2026-04-17 02:13 31.51784 28.58828 36654 ft 487 kts 166°
2026-04-17 02:14 31.45550 28.61927 36657 ft 487 kts 166°
2026-04-17 02:14 31.39314 28.65023 36660 ft 487 kts 166°
2026-04-17 02:15 31.33080 28.68115 36656 ft 487 kts 166°
2026-04-17 02:15 31.26832 28.71210 36671 ft 489 kts 166°
2026-04-17 02:16 31.20562 28.74309 36669 ft 489 kts 166°
2026-04-17 02:16 31.14292 28.77405 36674 ft 489 kts 166°
2026-04-17 02:17 31.08020 28.80499 36676 ft 489 kts 166°
2026-04-17 02:17 31.01752 28.83586 36655 ft 489 kts 167°
2026-04-17 02:18 30.95465 28.86676 36679 ft 491 kts 167°
2026-04-17 02:18 30.89174 28.89764 36681 ft 491 kts 167°
2026-04-17 02:19 30.82882 28.92849 36683 ft 491 kts 167°
2026-04-17 02:19 30.76586 28.95931 36662 ft 491 kts 167°
2026-04-17 02:20 30.70320 28.98994 36690 ft 493 kts 167°
2026-04-17 02:20 30.63986 29.02084 36688 ft 494 kts 167°
2026-04-17 02:21 30.57642 29.05179 36692 ft 495 kts 167°
2026-04-17 02:21 30.51367 29.08563 36692 ft 507 kts 158°
2026-04-17 02:21 30.48459 29.10952 36691 ft 519 kts 148°
2026-04-17 02:22 30.45783 29.13823 36648 ft 525 kts 144°
2026-04-17 02:22 30.40640 29.19931 36691 ft 532 kts 142°
2026-04-17 02:23 30.35585 29.26127 36669 ft 532 kts 142°
2026-04-17 02:23 30.30471 29.32305 36696 ft 531 kts 142°
2026-04-17 02:24 30.25341 29.38438 36688 ft 530 kts 142°
2026-04-17 02:24 30.20209 29.44556 36699 ft 530 kts 142°
2026-04-17 02:25 30.15071 29.50673 36698 ft 530 kts 142°
2026-04-17 02:25 30.09934 29.56782 36669 ft 529 kts 142°
2026-04-17 02:26 30.04804 29.62874 36701 ft 529 kts 142°
2026-04-17 02:26 29.99671 29.68960 36701 ft 529 kts 142°
2026-04-17 02:27 29.94531 29.75043 36705 ft 529 kts 142°
2026-04-17 02:27 29.89393 29.81117 36704 ft 529 kts 142°
2026-04-17 02:28 29.84290 29.87137 36703 ft 529 kts 142°
2026-04-17 02:28 29.79154 29.93189 36690 ft 528 kts 142°
2026-04-17 02:29 29.74013 29.99236 36710 ft 528 kts 142°
2026-04-17 02:29 29.68874 30.05270 36710 ft 528 kts 142°
2026-04-17 02:30 29.63732 30.11300 36717 ft 528 kts 142°
2026-04-17 02:30 29.58585 30.17326 36707 ft 528 kts 142°
2026-04-17 02:31 29.53431 30.23351 36711 ft 528 kts 142°
2026-04-17 02:31 29.48277 30.29367 36711 ft 528 kts 142°
2026-04-17 02:32 29.43109 30.35390 36710 ft 528 kts 142°
2026-04-17 02:32 29.37955 30.41396 36712 ft 529 kts 142°
2026-04-17 02:33 29.32833 30.47500 36716 ft 531 kts 141°
2026-04-17 02:33 29.27728 30.53629 36718 ft 531 kts 141°
2026-04-17 02:34 29.22650 30.59697 36722 ft 531 kts 141°
2026-04-17 02:34 29.17524 30.65797 36725 ft 531 kts 141°
2026-04-17 02:35 29.12393 30.71886 36727 ft 531 kts 141°
2026-04-17 02:35 29.04691 30.81011 36704 ft 531 kts 141°
2026-04-17 02:36 28.99546 30.87094 36733 ft 533 kts 141°
2026-04-17 02:36 28.94428 30.93136 36741 ft 533 kts 141°
2026-04-17 02:37 28.89267 30.99222 36742 ft 534 kts 141°
2026-04-17 02:37 28.84102 31.05303 36744 ft 534 kts 141°
2026-04-17 02:38 28.78931 31.11382 36752 ft 534 kts 141°
2026-04-17 02:38 28.73754 31.17458 36753 ft 534 kts 141°
2026-04-17 02:39 28.68578 31.23541 36738 ft 535 kts 141°
2026-04-17 02:39 28.63546 31.29824 36761 ft 539 kts 139°
2026-04-17 02:40 28.58559 31.36210 36766 ft 539 kts 139°
2026-04-17 02:40 28.53551 31.42565 36774 ft 539 kts 139°
2026-04-17 02:41 28.48517 31.48896 36774 ft 539 kts 139°
2026-04-17 02:41 28.43482 31.55201 36778 ft 539 kts 139°
2026-04-17 02:42 28.38477 31.61458 36782 ft 538 kts 139°
2026-04-17 02:42 28.33435 31.67754 36780 ft 538 kts 139°
2026-04-17 02:43 28.28392 31.74045 36781 ft 540 kts 139°
2026-04-17 02:43 28.23332 31.80345 36754 ft 540 kts 139°
2026-04-17 02:44 28.18278 31.86631 37001 ft 537 kts 139°
2026-04-17 02:44 28.15768 31.89753 37296 ft 535 kts 139°
2026-04-17 02:44 28.13261 31.92865 37512 ft 534 kts 139°
2026-04-17 02:45 28.10758 31.95970 37668 ft 534 kts 139°
2026-04-17 02:45 28.08256 31.99069 37813 ft 534 kts 139°
2026-04-17 02:45 28.05749 32.02175 37962 ft 534 kts 139°
2026-04-17 02:45 28.03416 32.05492 38058 ft 542 kts 129°
2026-04-17 02:46 28.01426 32.09139 38181 ft 545 kts 125°
2026-04-17 02:46 27.99555 32.12858 38412 ft 544 kts 123°
2026-04-17 02:46 27.97736 32.16612 38523 ft 544 kts 123°
2026-04-17 02:46 27.95960 32.20337 38615 ft 545 kts 123°
2026-04-17 02:47 27.92369 32.27880 38766 ft 545 kts 123°
2026-04-17 02:47 27.88737 32.35438 38775 ft 548 kts 123°
2026-04-17 02:48 27.85064 32.43025 38785 ft 552 kts 123°
2026-04-17 02:48 27.81363 32.50651 38782 ft 554 kts 123°
2026-04-17 02:49 27.77660 32.58273 38787 ft 553 kts 123°
2026-04-17 02:49 27.73955 32.65885 38779 ft 553 kts 123°
2026-04-17 02:50 27.70242 32.73498 38777 ft 554 kts 123°
2026-04-17 02:50 27.66525 32.81104 38776 ft 554 kts 123°
2026-04-17 02:51 27.62799 32.88717 38777 ft 554 kts 123°
2026-04-17 02:51 27.59073 32.96315 38772 ft 554 kts 123°
2026-04-17 02:52 27.55343 33.03907 38771 ft 554 kts 123°
2026-04-17 02:52 27.51630 33.11451 38769 ft 554 kts 123°
2026-04-17 02:53 27.47892 33.19035 38765 ft 554 kts 123°
2026-04-17 02:53 27.44149 33.26613 38762 ft 553 kts 123°
2026-04-17 02:54 27.40406 33.34180 38763 ft 553 kts 124°
2026-04-17 02:54 27.36663 33.41734 38758 ft 553 kts 124°
2026-04-17 02:55 27.32909 33.49293 38757 ft 555 kts 124°
2026-04-17 02:55 27.29122 33.56898 38752 ft 559 kts 124°
2026-04-17 02:56 27.25321 33.64525 38754 ft 559 kts 124°
2026-04-17 02:56 27.21520 33.72141 38747 ft 558 kts 124°
2026-04-17 02:57 27.17849 33.79766 38750 ft 561 kts 117°
2026-04-17 02:57 27.14816 33.87857 38749 ft 563 kts 116°
2026-04-17 02:58 27.11914 33.96028 38737 ft 563 kts 115°
2026-04-17 02:58 27.09022 34.04219 38746 ft 565 kts 115°
2026-04-17 02:59 27.06111 34.12407 38744 ft 565 kts 115°
2026-04-17 02:59 27.03660 34.19264 38744 ft 565 kts 115°
2026-04-17 03:00 27.00749 34.27391 38745 ft 565 kts 116°
2026-04-17 03:00 26.97807 34.35576 38748 ft 566 kts 116°
2026-04-17 03:01 26.94860 34.43750 38747 ft 565 kts 116°
2026-04-17 03:01 26.91910 34.51922 38748 ft 566 kts 116°
2026-04-17 03:02 26.88950 34.60105 38755 ft 566 kts 116°
2026-04-17 03:02 26.85985 34.68287 38761 ft 567 kts 116°
2026-04-17 03:03 26.83017 34.76461 38754 ft 567 kts 116°
2026-04-17 03:03 26.80044 34.84631 38761 ft 567 kts 116°
2026-04-17 03:04 26.77064 34.92800 38763 ft 566 kts 116°
2026-04-17 03:04 26.74108 35.00908 38757 ft 566 kts 116°
2026-04-17 03:05 26.71118 35.09073 38765 ft 568 kts 116°
2026-04-17 03:05 26.68116 35.17257 38766 ft 568 kts 116°
2026-04-17 03:06 26.65115 35.25424 38760 ft 568 kts 116°
2026-04-17 03:06 26.62108 35.33592 38771 ft 568 kts 116°
2026-04-17 03:07 26.59095 35.41758 38768 ft 569 kts 116°
2026-04-17 03:07 26.56077 35.49923 38767 ft 569 kts 116°
2026-04-17 03:08 26.52999 35.58057 38771 ft 569 kts 117°
2026-04-17 03:08 26.49893 35.66124 38775 ft 569 kts 117°
2026-04-17 03:09 26.46770 35.74241 38775 ft 569 kts 117°
2026-04-17 03:09 26.43653 35.82359 38770 ft 570 kts 117°
2026-04-17 03:10 26.40514 35.90525 38776 ft 574 kts 117°
2026-04-17 03:10 26.37359 35.98720 38776 ft 575 kts 117°
2026-04-17 03:11 26.34198 36.06915 38777 ft 575 kts 117°
2026-04-17 03:11 26.31030 36.15110 38776 ft 575 kts 117°
2026-04-17 03:12 26.27861 36.23290 38775 ft 575 kts 117°
2026-04-17 03:12 26.24684 36.31473 38774 ft 575 kts 117°
2026-04-17 03:13 26.21497 36.39665 38775 ft 576 kts 117°
2026-04-17 03:13 26.18891 36.48054 38775 ft 581 kts 101°
2026-04-17 03:14 26.18505 36.52530 38776 ft 582 kts 89°
2026-04-17 03:14 26.18702 36.57020 38781 ft 580 kts 84°
2026-04-17 03:14 26.19529 36.65973 38787 ft 581 kts 81°
2026-04-17 03:15 26.20506 36.74891 38787 ft 579 kts 81°
2026-04-17 03:15 26.21442 36.83786 38793 ft 578 kts 82°
2026-04-17 03:16 26.22329 36.92682 38808 ft 578 kts 82°
2026-04-17 03:16 26.23197 37.01582 38809 ft 578 kts 82°
2026-04-17 03:17 26.24060 37.10485 38823 ft 579 kts 82°
2026-04-17 03:17 26.24916 37.19336 38843 ft 579 kts 82°
2026-04-17 03:18 26.25774 37.28252 38870 ft 579 kts 82°
2026-04-17 03:18 26.26624 37.37154 38864 ft 576 kts 82°
2026-04-17 03:19 26.27465 37.46028 38890 ft 575 kts 83°
2026-04-17 03:19 26.28299 37.54884 38888 ft 576 kts 83°
2026-04-17 03:20 26.29131 37.63767 38885 ft 576 kts 83°
2026-04-17 03:20 26.29948 37.72582 38875 ft 575 kts 83°
2026-04-17 03:21 26.30770 37.81450 38889 ft 574 kts 83°
2026-04-17 03:21 26.31587 37.90306 38925 ft 574 kts 83°
2026-04-17 03:22 26.32390 37.99130 38901 ft 571 kts 83°
2026-04-17 03:22 26.33188 38.07927 38906 ft 570 kts 83°
2026-04-17 03:23 26.33983 38.16728 38903 ft 571 kts 83°
2026-04-17 03:23 26.34773 38.25532 38904 ft 571 kts 83°
2026-04-17 03:24 26.35554 38.34340 38904 ft 571 kts 83°
2026-04-17 03:24 26.36326 38.43147 38910 ft 571 kts 83°
2026-04-17 03:25 26.37095 38.51954 38929 ft 570 kts 83°
2026-04-17 03:25 26.37855 38.60719 38922 ft 566 kts 83°
2026-04-17 03:26 26.38608 38.69459 38928 ft 566 kts 83°
2026-04-17 03:26 26.39357 38.78216 38937 ft 568 kts 83°
2026-04-17 03:27 26.40097 38.86926 38943 ft 568 kts 83°
2026-04-17 03:27 26.40836 38.95696 38951 ft 568 kts 83°
2026-04-17 03:28 26.41570 39.04472 38958 ft 568 kts 83°
2026-04-17 03:28 26.42299 39.13241 38953 ft 566 kts 83°
2026-04-17 03:29 26.43018 39.21975 38960 ft 565 kts 84°
2026-04-17 03:29 26.43711 39.30705 38972 ft 564 kts 85°
2026-04-17 03:30 26.44157 39.39458 38967 ft 565 kts 86°
2026-04-17 03:30 26.44530 39.48223 38971 ft 566 kts 86°
2026-04-17 03:31 26.44932 39.57002 38978 ft 566 kts 86°
2026-04-17 03:31 26.45357 39.65778 38985 ft 566 kts 86°
2026-04-17 03:32 26.45782 39.74492 38982 ft 564 kts 86°
2026-04-17 03:32 26.46200 39.83219 38994 ft 563 kts 86°
2026-04-17 03:33 26.46610 39.91940 38998 ft 563 kts 86°
2026-04-17 03:33 26.47016 40.00661 39011 ft 563 kts 86°
2026-04-17 03:34 26.47415 40.09377 39009 ft 562 kts 86°
2026-04-17 03:34 26.47810 40.18101 39017 ft 562 kts 86°
2026-04-17 03:35 26.48198 40.26817 39015 ft 563 kts 86°
2026-04-17 03:35 26.48583 40.35548 39020 ft 562 kts 86°
2026-04-17 03:36 26.49146 40.48596 39034 ft 560 kts 86°
2026-04-17 03:37 26.49515 40.57279 39041 ft 560 kts 86°
2026-04-17 03:37 26.49884 40.65973 39038 ft 560 kts 86°
2026-04-17 03:38 26.50237 40.74604 39047 ft 560 kts 86°
2026-04-17 03:38 26.50587 40.83297 39046 ft 560 kts 86°
2026-04-17 03:39 26.50933 40.91991 39046 ft 561 kts 86°
2026-04-17 03:39 26.51275 41.00693 39064 ft 561 kts 86°
2026-04-17 03:40 26.51076 41.09396 39063 ft 561 kts 94°
2026-04-17 03:40 26.50507 41.18092 39064 ft 561 kts 95°
2026-04-17 03:41 26.49874 41.26775 39070 ft 561 kts 95°
2026-04-17 03:41 26.49240 41.35463 39053 ft 561 kts 95°
2026-04-17 03:42 26.48611 41.44154 39069 ft 562 kts 95°
2026-04-17 03:42 26.47982 41.52852 39071 ft 562 kts 95°
2026-04-17 03:43 26.47347 41.61544 39068 ft 562 kts 95°
2026-04-17 03:43 26.46708 41.70234 39081 ft 560 kts 95°
2026-04-17 03:44 26.46070 41.78815 39058 ft 557 kts 95°
2026-04-17 03:44 26.45424 41.87439 39064 ft 557 kts 95°
2026-04-17 03:45 26.44773 41.96057 39064 ft 557 kts 95°
2026-04-17 03:45 26.44117 42.04680 39066 ft 557 kts 95°
2026-04-17 03:46 26.43456 42.13300 39060 ft 558 kts 95°
2026-04-17 03:46 26.42790 42.21917 39057 ft 558 kts 95°
2026-04-17 03:47 26.42118 42.30544 39053 ft 558 kts 95°
2026-04-17 03:47 26.41440 42.39171 39054 ft 558 kts 95°
2026-04-17 03:48 26.40873 42.46338 39048 ft 558 kts 95°
2026-04-17 03:48 26.40074 42.56356 39045 ft 556 kts 95°
2026-04-17 03:49 26.39385 42.64931 39043 ft 555 kts 95°
2026-04-17 03:49 26.38804 42.72115 39039 ft 555 kts 95°
2026-04-17 03:50 26.38105 42.80686 39039 ft 555 kts 95°
2026-04-17 03:50 26.37406 42.89205 39034 ft 555 kts 96°
2026-04-17 03:51 26.36698 42.97774 39034 ft 555 kts 96°
2026-04-17 03:51 26.35984 43.06349 39032 ft 555 kts 96°
2026-04-17 03:52 26.35264 43.14936 39028 ft 557 kts 96°
2026-04-17 03:52 26.34536 43.23529 39019 ft 557 kts 96°
2026-04-17 03:53 26.33805 43.32115 39024 ft 555 kts 96°
2026-04-17 03:53 26.33072 43.40653 39015 ft 552 kts 96°
2026-04-17 03:54 26.32336 43.49176 39017 ft 553 kts 96°
2026-04-17 03:54 26.31593 43.57711 39017 ft 553 kts 96°
2026-04-17 03:55 26.30851 43.66187 39021 ft 553 kts 96°
2026-04-17 03:55 26.30015 43.74720 39018 ft 554 kts 102°
2026-04-17 03:56 26.27585 43.82780 39018 ft 548 kts 118°
2026-04-17 03:56 26.24212 43.90394 39017 ft 548 kts 121°
2026-04-17 03:57 26.20691 43.97930 39013 ft 548 kts 121°
2026-04-17 03:57 26.17176 44.05463 39010 ft 549 kts 121°
2026-04-17 03:58 26.13677 44.13018 39007 ft 549 kts 121°
2026-04-17 03:58 26.10184 44.20577 39010 ft 549 kts 121°
2026-04-17 03:59 26.06691 44.28129 39011 ft 549 kts 121°
2026-04-17 03:59 26.03192 44.35676 39016 ft 549 kts 121°
2026-04-17 04:00 25.99691 44.43212 39007 ft 549 kts 121°
2026-04-17 04:00 25.96182 44.50751 39023 ft 549 kts 121°
2026-04-17 04:01 25.92691 44.58240 39031 ft 549 kts 121°
2026-04-17 04:01 25.89175 44.65769 39031 ft 549 kts 121°
2026-04-17 04:02 25.85650 44.73307 39034 ft 549 kts 121°
2026-04-17 04:02 25.82123 44.80838 39037 ft 549 kts 121°
2026-04-17 04:03 25.78587 44.88354 39040 ft 549 kts 121°
2026-04-17 04:03 25.75045 44.95872 39040 ft 549 kts 121°
2026-04-17 04:04 25.71503 45.03383 39039 ft 549 kts 121°
2026-04-17 04:04 25.67960 45.10884 39045 ft 550 kts 121°
2026-04-17 04:05 25.64430 45.18357 39050 ft 552 kts 121°
2026-04-17 04:05 25.60869 45.25881 39050 ft 551 kts 121°
2026-04-17 04:06 25.57310 45.33387 39053 ft 550 kts 121°
2026-04-17 04:06 25.53749 45.40885 39057 ft 550 kts 121°
2026-04-17 04:07 25.50184 45.48381 39054 ft 550 kts 121°
2026-04-17 04:07 25.46618 45.55868 39054 ft 549 kts 122°
2026-04-17 04:08 25.43045 45.63352 39055 ft 551 kts 121°
2026-04-17 04:08 25.39456 45.70860 39058 ft 552 kts 121°
2026-04-17 04:09 25.35861 45.78371 39067 ft 552 kts 121°
2026-04-17 04:09 25.32444 45.85996 39048 ft 554 kts 118°
2026-04-17 04:10 25.29236 45.93767 39061 ft 557 kts 117°
2026-04-17 04:10 25.26001 46.01557 39062 ft 557 kts 118°
2026-04-17 04:11 25.22746 46.09255 39063 ft 556 kts 118°
2026-04-17 04:11 25.19447 46.16989 39067 ft 558 kts 118°
2026-04-17 04:12 25.16130 46.24748 39061 ft 559 kts 118°
2026-04-17 04:12 25.12812 46.32502 39058 ft 559 kts 118°
2026-04-17 04:13 25.09487 46.40261 39058 ft 558 kts 118°
2026-04-17 04:13 25.06157 46.48017 39055 ft 560 kts 118°
2026-04-17 04:14 25.02814 46.55791 39050 ft 561 kts 118°
2026-04-17 04:14 24.99472 46.63552 39047 ft 559 kts 118°
2026-04-17 04:15 24.96220 46.71282 39035 ft 560 kts 115°
2026-04-17 04:15 24.93270 46.79246 39048 ft 562 kts 114°
2026-04-17 04:16 24.90368 46.87248 39050 ft 562 kts 114°
2026-04-17 04:16 24.87413 46.95221 39061 ft 562 kts 114°
2026-04-17 04:17 24.84428 47.03157 39054 ft 559 kts 114°
2026-04-17 04:17 24.81436 47.11074 39056 ft 560 kts 114°
2026-04-17 04:18 24.78437 47.18998 39061 ft 560 kts 114°
2026-04-17 04:18 24.75446 47.26896 39053 ft 559 kts 114°
2026-04-17 04:19 24.72449 47.34794 39044 ft 559 kts 114°
2026-04-17 04:19 24.69443 47.42702 39050 ft 561 kts 114°
2026-04-17 04:20 24.66435 47.50599 39052 ft 560 kts 114°
2026-04-17 04:20 24.63421 47.58499 39042 ft 560 kts 115°
2026-04-17 04:21 24.60409 47.66379 39037 ft 559 kts 114°
2026-04-17 04:21 24.57409 47.74212 39042 ft 560 kts 114°
2026-04-17 04:22 24.54397 47.82118 39043 ft 561 kts 113°
2026-04-17 04:22 24.51731 47.90169 39039 ft 561 kts 110°
2026-04-17 04:23 24.49196 47.98275 39025 ft 561 kts 110°
2026-04-17 04:23 24.46609 48.06362 39037 ft 561 kts 110°
2026-04-17 04:24 24.43977 48.14422 39038 ft 561 kts 111°
2026-04-17 04:24 24.41327 48.22474 39040 ft 561 kts 111°
2026-04-17 04:25 24.38677 48.30513 39035 ft 559 kts 111°
2026-04-17 04:25 24.36030 48.38534 39034 ft 559 kts 111°
2026-04-17 04:26 24.33384 48.46539 39037 ft 558 kts 111°
2026-04-17 04:26 24.30752 48.54487 39031 ft 558 kts 111°
2026-04-17 04:27 24.28101 48.62476 39028 ft 558 kts 111°
2026-04-17 04:27 24.25445 48.70464 39019 ft 558 kts 111°
2026-04-17 04:28 24.22781 48.78457 39022 ft 559 kts 111°
2026-04-17 04:28 24.20131 48.86470 39017 ft 559 kts 108°
2026-04-17 04:29 24.18909 48.94837 39029 ft 556 kts 86°
2026-04-17 04:29 24.19281 49.03284 39026 ft 555 kts 83°
2026-04-17 04:30 24.19922 49.11714 39013 ft 554 kts 83°
2026-04-17 04:30 24.20566 49.20097 39020 ft 551 kts 83°
2026-04-17 04:31 24.21163 49.28400 39014 ft 550 kts 83°
2026-04-17 04:31 24.21742 49.36758 39021 ft 550 kts 83°
2026-04-17 04:32 24.22312 49.45106 39019 ft 549 kts 83°
2026-04-17 04:32 24.22878 49.53446 39024 ft 549 kts 84°
2026-04-17 04:33 24.23441 49.61790 39015 ft 549 kts 84°
2026-04-17 04:33 24.23999 49.70135 39013 ft 549 kts 84°
2026-04-17 04:34 24.24828 49.82650 39013 ft 549 kts 84°
2026-04-17 04:34 24.25374 49.90986 39011 ft 549 kts 84°
2026-04-17 04:35 24.25916 49.99330 39018 ft 548 kts 84°
2026-04-17 04:35 24.26363 50.06259 39013 ft 548 kts 84°
2026-04-17 04:36 24.26896 50.14588 39012 ft 548 kts 84°
2026-04-17 04:36 24.27424 50.22920 39011 ft 548 kts 84°
2026-04-17 04:37 24.27947 50.31245 39013 ft 547 kts 84°
2026-04-17 04:37 24.28465 50.39552 39007 ft 546 kts 84°
2026-04-17 04:38 24.28975 50.47801 39004 ft 546 kts 84°
2026-04-17 04:38 24.29484 50.56114 39002 ft 546 kts 84°
2026-04-17 04:39 24.29988 50.64422 39001 ft 546 kts 84°
2026-04-17 04:39 24.30487 50.72731 38999 ft 546 kts 84°
2026-04-17 04:40 24.30982 50.81030 39002 ft 546 kts 84°
2026-04-17 04:40 24.31472 50.89332 39004 ft 546 kts 84°
2026-04-17 04:41 24.31958 50.97649 38992 ft 547 kts 84°
2026-04-17 04:41 24.32440 51.05970 38996 ft 547 kts 84°
2026-04-17 04:42 24.32918 51.14288 38991 ft 547 kts 84°
2026-04-17 04:42 24.34508 51.22327 38992 ft 535 kts 62°
2026-04-17 04:43 24.36262 51.25872 38989 ft 524 kts 49°
2026-04-17 04:43 24.38568 51.28912 38997 ft 515 kts 39°
2026-04-17 04:43 24.43683 51.34397 38999 ft 514 kts 36°
2026-04-17 04:44 24.48907 51.39686 38990 ft 515 kts 36°
2026-04-17 04:44 24.54487 51.44434 38996 ft 498 kts 20°
2026-04-17 04:45 24.60636 51.47881 38990 ft 496 kts 18°
2026-04-17 04:45 24.66993 51.50336 39003 ft 470 kts 356°
2026-04-17 04:46 24.70185 51.50205 38995 ft 450 kts 341°
2026-04-17 04:46 24.73088 51.49126 38993 ft 434 kts 325°
2026-04-17 04:46 24.75485 51.47220 38990 ft 421 kts 309°
2026-04-17 04:46 24.77198 51.44661 38990 ft 413 kts 294°
2026-04-17 04:47 24.79263 51.38773 38987 ft 416 kts 298°
2026-04-17 04:47 24.82778 51.33643 38993 ft 422 kts 306°
2026-04-17 04:48 24.86580 51.28700 38991 ft 425 kts 308°
2026-04-17 04:48 24.88843 51.26569 38991 ft 434 kts 322°
2026-04-17 04:48 24.91499 51.25022 38991 ft 439 kts 328°
2026-04-17 04:49 24.97089 51.22215 38989 ft 442 kts 329°
2026-04-17 04:49 25.02684 51.19398 38990 ft 442 kts 328°
2026-04-17 04:50 25.08275 51.16564 38994 ft 442 kts 328°
2026-04-17 04:50 25.13868 51.13719 38990 ft 442 kts 328°
2026-04-17 04:51 25.19459 51.10871 38991 ft 442 kts 328°
2026-04-17 04:51 25.25326 51.08667 38993 ft 462 kts 347°
2026-04-17 04:52 25.28584 51.08829 38990 ft 479 kts
2026-04-17 04:52 25.31803 51.09988 38988 ft 497 kts 19°
2026-04-17 04:52 25.34748 51.12100 38985 ft 514 kts 34°
2026-04-17 04:52 25.37198 51.15050 38986 ft 529 kts 50°
2026-04-17 04:53 25.38970 51.18663 38979 ft 541 kts 65°
2026-04-17 04:53 25.39924 51.22706 38982 ft 548 kts 81°
2026-04-17 04:53 25.39987 51.26924 38981 ft 551 kts 97°
2026-04-17 04:55 25.24024 51.48560 38996 ft 545 kts 126°
2026-04-17 04:55 25.21646 51.51769 39004 ft 536 kts 142°
2026-04-17 04:55 25.18690 51.54195 38988 ft 523 kts 158°
2026-04-17 04:56 25.15389 51.55691 38985 ft 505 kts 174°
2026-04-17 04:56 25.11973 51.56215 38997 ft 490 kts 187°
2026-04-17 04:56 25.05113 51.57021 38975 ft 505 kts 175°
2026-04-17 04:57 24.98340 51.59182 38982 ft 514 kts 168°
2026-04-17 04:57 24.91578 51.61846 38986 ft 517 kts 167°
2026-04-17 04:58 24.84821 51.64644 38989 ft 519 kts 166°
2026-04-17 04:58 24.78073 51.67496 38993 ft 520 kts 166°
2026-04-17 04:59 24.71320 51.70364 38972 ft 520 kts 165°
2026-04-17 04:59 24.64572 51.73233 38991 ft 520 kts 165°
2026-04-17 05:00 24.57826 51.76098 38998 ft 520 kts 165°
2026-04-17 05:00 24.51075 51.78964 38995 ft 520 kts 165°
2026-04-17 05:01 24.44323 51.81825 38996 ft 520 kts 165°
2026-04-17 05:01 24.37613 51.84667 38996 ft 520 kts 165°
2026-04-17 05:02 24.30863 51.87522 38991 ft 520 kts 165°
2026-04-17 05:02 24.24104 51.90376 38995 ft 521 kts 165°
2026-04-17 05:03 24.17337 51.93232 38995 ft 521 kts 165°
2026-04-17 05:03 24.10566 51.96086 38995 ft 521 kts 165°
2026-04-17 05:04 24.03790 51.98939 38986 ft 521 kts 165°
2026-04-17 05:04 23.97010 52.01790 38999 ft 522 kts 165°
2026-04-17 05:05 23.90226 52.04639 39002 ft 522 kts 165°
2026-04-17 05:05 23.83446 52.07485 38998 ft 522 kts 165°
2026-04-17 05:06 23.76658 52.10329 38998 ft 523 kts 164°
2026-04-17 05:06 23.69867 52.13173 39001 ft 523 kts 164°
2026-04-17 05:07 23.63122 52.15994 39004 ft 523 kts 164°
2026-04-17 05:07 23.56333 52.18829 39002 ft 522 kts 164°
2026-04-17 05:08 23.49548 52.21660 39004 ft 522 kts 164°
2026-04-17 05:08 23.42771 52.24485 39004 ft 521 kts 164°
2026-04-17 05:09 23.39404 52.25889 38900 ft 513 kts 164°
2026-04-17 05:09 23.36077 52.27158 38626 ft 497 kts 172°
2026-04-17 05:09 23.32747 52.27635 38027 ft 470 kts 188°
2026-04-17 05:09 23.29578 52.27211 36896 ft 453 kts 202°
2026-04-17 05:10 23.26692 52.25928 35288 ft 448 kts 217°
2026-04-17 05:10 23.24249 52.23825 33438 ft 451 kts 231°
2026-04-17 05:10 23.22421 52.21026 31341 ft 460 kts 246°
2026-04-17 05:10 23.21432 52.17719 29793 ft 460 kts 262°
2026-04-17 05:11 23.21013 52.14282 28522 ft 460 kts 265°
2026-04-17 05:11 23.20861 52.10822 27869 ft 456 kts 271°
2026-04-17 05:11 23.21115 52.07383 27785 ft 459 kts 279°
2026-04-17 05:11 23.21830 52.04005 27775 ft 459 kts 287°
2026-04-17 05:12 23.23038 52.00798 27772 ft 459 kts 296°
2026-04-17 05:12 23.24717 51.97852 27772 ft 460 kts 305°
2026-04-17 05:12 23.26826 51.95228 27682 ft 462 kts 314°
2026-04-17 05:12 23.29317 51.93001 27558 ft 465 kts 323°
2026-04-17 05:13 23.32132 51.91228 27426 ft 469 kts 332°
2026-04-17 05:13 23.35160 51.89999 27304 ft 474 kts 342°
2026-04-17 05:13 23.38425 51.89398 27179 ft 477 kts 350°
2026-04-17 05:13 23.41724 51.89047 27056 ft 477 kts 351°
2026-04-17 05:14 23.45031 51.88725 26928 ft 476 kts 351°
2026-04-17 05:14 23.48329 51.88400 26803 ft 475 kts 351°
2026-04-17 05:14 23.51621 51.88071 26682 ft 475 kts 351°
2026-04-17 05:14 23.54907 51.87739 26567 ft 474 kts 351°
2026-04-17 05:15 23.58186 51.87405 26452 ft 474 kts 351°
2026-04-17 05:15 23.61466 51.87072 26212 ft 472 kts 351°
2026-04-17 05:15 23.64728 51.86739 25810 ft 470 kts 351°
2026-04-17 05:15 23.67974 51.86407 25322 ft 467 kts 351°
2026-04-17 05:16 23.71197 51.86077 24810 ft 464 kts 351°
2026-04-17 05:16 23.74398 51.85750 24298 ft 460 kts 351°
2026-04-17 05:16 23.77575 51.85424 23795 ft 457 kts 351°
2026-04-17 05:16 23.80731 51.85101 23223 ft 454 kts 351°
2026-04-17 05:17 23.83864 51.84779 22691 ft 451 kts 351°
2026-04-17 05:17 23.86978 51.84460 22179 ft 448 kts 351°
2026-04-17 05:17 23.90066 51.84143 21670 ft 444 kts 351°
2026-04-17 05:17 23.93131 51.83828 21155 ft 441 kts 351°
2026-04-17 05:18 23.96172 51.83516 20652 ft 437 kts 351°
2026-04-17 05:18 23.99190 51.83205 20133 ft 434 kts 351°
2026-04-17 05:18 24.02183 51.82897 19645 ft 431 kts 351°
2026-04-17 05:18 24.05164 51.82589 19126 ft 428 kts 351°
2026-04-17 05:19 24.08118 51.82285 18616 ft 425 kts 351°
2026-04-17 05:19 24.11045 51.81983 18078 ft 421 kts 351°
2026-04-17 05:19 24.13951 51.81684 17539 ft 418 kts 351°
2026-04-17 05:19 24.16832 51.81387 17027 ft 414 kts 351°
2026-04-17 05:20 24.19686 51.81093 16525 ft 410 kts 351°
2026-04-17 05:20 24.22515 51.80801 16021 ft 407 kts 351°
2026-04-17 05:20 24.25322 51.80510 15524 ft 404 kts 351°
2026-04-17 05:20 24.28117 51.80221 15030 ft 401 kts 351°
2026-04-17 05:21 24.30883 51.79936 14534 ft 398 kts 351°
2026-04-17 05:21 24.33593 51.79655 14049 ft 395 kts 351°
2026-04-17 05:21 24.36321 51.79373 13530 ft 391 kts 351°
2026-04-17 05:21 24.39025 51.79092 13024 ft 389 kts 351°
2026-04-17 05:22 24.41707 51.78814 12546 ft 386 kts 351°
2026-04-17 05:22 24.44373 51.78537 12074 ft 383 kts 351°
2026-04-17 05:22 24.47014 51.78264 11582 ft 380 kts 351°
2026-04-17 05:22 24.49639 51.77991 11102 ft 377 kts 351°
2026-04-17 05:23 24.52214 51.77726 10823 ft 364 kts 351°
2026-04-17 05:23 24.54689 51.77472 10600 ft 350 kts 351°
2026-04-17 05:23 24.57062 51.77228 10404 ft 336 kts 351°
2026-04-17 05:23 24.59311 51.76996 10222 ft 322 kts 350°
2026-04-17 05:24 24.61500 51.76769 10047 ft 310 kts 350°
2026-04-17 05:24 24.63603 51.76551 9851 ft 298 kts 350°
2026-04-17 05:24 24.65636 51.76338 9635 ft 289 kts 350°
2026-04-17 05:24 24.67628 51.76129 9399 ft 287 kts 350°
2026-04-17 05:25 24.69616 51.75919 9111 ft 286 kts 350°
2026-04-17 05:25 24.71587 51.75712 8793 ft 283 kts 350°
2026-04-17 05:25 24.73544 51.75507 8496 ft 281 kts 351°
2026-04-17 05:25 24.75486 51.75305 8186 ft 279 kts 350°
2026-04-17 05:26 24.77408 51.75104 7883 ft 277 kts 350°
2026-04-17 05:26 24.79320 51.74905 7579 ft 275 kts 350°
2026-04-17 05:26 24.81223 51.74706 7278 ft 273 kts 350°
2026-04-17 05:26 24.82474 51.74575 7094 ft 272 kts 351°
2026-04-17 05:27 24.84349 51.74379 6788 ft 270 kts 351°
2026-04-17 05:27 24.86214 51.74185 6503 ft 268 kts 351°
2026-04-17 05:27 24.88060 51.73992 6198 ft 266 kts 351°
2026-04-17 05:27 24.89899 51.73801 5904 ft 265 kts 351°
2026-04-17 05:28 24.91729 51.73610 5617 ft 263 kts 351°
2026-04-17 05:28 24.93548 51.73420 5327 ft 262 kts 351°
2026-04-17 05:28 24.95359 51.73231 5056 ft 260 kts 351°
2026-04-17 05:28 24.97162 51.73042 4911 ft 260 kts 351°
2026-04-17 05:29 24.98922 51.72860 4817 ft 247 kts 351°
2026-04-17 05:29 25.00587 51.72689 4666 ft 235 kts 351°
2026-04-17 05:29 25.02191 51.72519 4407 ft 228 kts 350°
2026-04-17 05:29 25.03731 51.72214 4103 ft 223 kts 341°
2026-04-17 05:30 25.05167 51.71675 3807 ft 219 kts 335°
2026-04-17 05:30 25.06558 51.71053 3696 ft 210 kts 334°
2026-04-17 05:30 25.07899 51.70452 3586 ft 207 kts 335°
2026-04-17 05:30 25.09236 51.69867 3372 ft 206 kts 335°
2026-04-17 05:31 25.10548 51.69293 3125 ft 199 kts 335°
2026-04-17 05:31 25.11818 51.68733 2836 ft 194 kts 335°
2026-04-17 05:31 25.13043 51.68193 2600 ft 186 kts 335°
2026-04-17 05:31 25.14222 51.67672 2342 ft 178 kts 335°
2026-04-17 05:32 25.15335 51.67182 2102 ft 165 kts 336°
2026-04-17 05:32 25.16364 51.66730 1922 ft 154 kts 335°
2026-04-17 05:32 25.17329 51.66302 1710 ft 144 kts 335°
2026-04-17 05:32 25.18251 51.65895 1532 ft 142 kts 335°
2026-04-17 05:33 25.19174 51.65487 1339 ft 143 kts 336°
2026-04-17 05:33 25.20104 51.65077 1158 ft 145 kts 336°
2026-04-17 05:33 25.21032 51.64668 974 ft 146 kts 336°
2026-04-17 05:33 25.21975 51.64251 802 ft 146 kts 335°
2026-04-17 05:34 25.22913 51.63836 623 ft 144 kts 337°
2026-04-17 05:34 25.23849 51.63431 420 ft 146 kts 335°
2026-04-17 05:34 25.24796 51.63021 226 ft 144 kts 336°
2026-04-17 05:34 25.25720 51.62605 51 ft 145 kts 335°
2026-04-17 05:35 25.26605 51.62211 31 ft 123 kts 339°
2026-04-17 05:35 25.27140 51.61976 31 ft 43 kts 338°
2026-04-17 05:35 25.27387 51.61824 33 ft 31 kts 316°
2026-04-17 05:35 25.27478 51.61704 34 ft 19 kts 309°
2026-04-17 05:36 25.27548 51.61600 34 ft 13 kts 293°
2026-04-17 05:36 25.27527 51.61517 35 ft 12 kts 216°
2026-04-17 05:36 25.27449 51.61528 35 ft 13 kts 158°
2026-04-17 05:36 25.27360 51.61569 35 ft 15 kts 158°
2026-04-17 05:37 25.27265 51.61611 35 ft 17 kts 159°
2026-04-17 05:37 25.27147 51.61662 35 ft 19 kts 158°
2026-04-17 05:37 25.27015 51.61719 35 ft 21 kts 159°
2026-04-17 05:37 25.26870 51.61783 35 ft 23 kts 158°
2026-04-17 05:38 25.26712 51.61853 35 ft 25 kts 158°
2026-04-17 05:38 25.26543 51.61928 35 ft 27 kts 158°
2026-04-17 05:38 25.26398 51.61992 36 ft 11 kts 158°
2026-04-17 05:38 25.26321 51.62026 36 ft 13 kts 158°
2026-04-17 05:39 25.26238 51.62047 36 ft 9 kts 203°
2026-04-17 05:39 25.26199 51.61983 36 ft 11 kts 250°
2026-04-17 05:39 25.26170 51.61896 36 ft 13 kts 249°
2026-04-17 05:39 25.26170 51.61824 36 ft 8 kts 311°
2026-04-17 05:40 25.26202 51.61801 36 ft 2 kts 328°
2026-04-17 05:40 25.26214 51.61792 36 ft 3 kts 329°
2026-04-17 05:40 25.26220 51.61788 36 ft 0 kts 329°